Погода в Верхнем Таштыпе

Россия / Республика Хакасия     52°48′44″N   89°26′37″E
темп.,
°C
ветер,
м/с
пор.,
м/с
влажн.,
%
обл.,
%
осадки,
мм/ч
давл.,
гПа
погр.,
м
13 мая, чт
чт1301:00+5зюз217444 0.0 101514
04:00+4зюз118669 0.0 101614
07:00+6зюз127886 0.0 1017126
10:00+14зюз11515 0.0 1014760
13:00+18зсз123399 0.0 10122677
16:00+17сз223634 0.0 10122257
19:00+15всв015095 0.0 1012156
22:00+8юз1177100 0.1 101415
14 мая, пт
пт1401:00+7зюз1181100 0.1 101411
04:00+7зюз1180100 0.0 101411
07:00+8зюз127738 0.1 101493
10:00+14зюз235384 0.0 1013843
13:00+15з5654100 1.8 10141689
16:00+12з597454 2.1 10151114
19:00+11з37746 4.1 1018896
22:00+6зюз2392100 0.0 102367
15 мая, сб
сб1501:00+5зюз2284100 0.0 102445
04:00+5зюз2279100 0.0 102435
07:00+7зюз288098 0.0 1025326
10:00+12зюз694399 0.0 10251259
13:00+14з694474 0.0 10241186
16:00+16з574515 0.0 10221356
19:00+15з475516 0.0 1022964
22:00+9зюз228286 0.0 102325
16 мая, вс
вс1601:00+9зюз227899 0.0 102147
04:00+7зюз22885 0.0 102132
07:00+10зюз12755 0.0 1019107
10:00+18з474586 0.0 10171247
13:00+21зюз573728 0.0 10151918
16:00+21з584190 0.0 10132431
19:00+18зюз495688 0.1 10121103
22:00+12зюз2391100 1.8 101456
17 мая, пн
пн1701:00+11зюз2396100 3.9 101592
04:00+11зюз2894100 0.4 1015318
07:00+12зюз289098 0.4 1016591
10:00+13зюз3882100 0.0 1017706
13:00+13зюз3880100 0.1 1017750
16:00+18з695773 0.1 10151560
19:00+17зюз59625 0.1 10151084
22:00+12юз312855 0.0 1015371